SCP
0 0 0 0 0 0 0 0 0 0 0 0 0 0 0 0 0 0 0 0 0 0 0 0 0 0 0 0 0 0 0 0 0 0 0 0 0 0 0 0 0 0 0
0 0 0 0 0 0 0 0 0 0 0 0 0 0 0 0 0 0 0 0 0 0 0 0 0 0 0 0 0 0 0 0 0 0 0 0 0 0 0 0 0 0 0
0 0 0 0 0 0 0 0 0 0 0 0 0 0 0 0 0 0 0 0 0 0 0 0 0 0 0 0 0 0 0 0 0 0 0 0 0 0 0 0 0 0 0
0 0 0 0 0 0 0 0 0 0 0 0 0 0 0 0 0 0 0 0 0 0 0 0 0 0 0 0 0 0 0 0 0 0 0 0 0 0 0 0 0 0 0
0 0 0 0 0 0 0 0 0 0 0 0 0 0 0 0 0 0 0 0 0 0 0 0 0 0 0 0 0 0 0 0 0 0 0 0 0 0 0 0 0 0 0
0 0 0 0 0 0 0 0 0 0 0 0 0 0 0 0 0 0 0 0 0 0 0 0 0 0 0 0 0 0 0 0 0 0 0 0 0 0 0 0 0 0 0
0 0 0 0 0 0 0 0 0 0 0 0 0 0 0 0 0 0 0 0 0 0 0 0 0 0 0 0 0 0 0 0 0 0 0 0 0 0 0 0 0 0 0
0 0 0 0 0 0 0 0 0 0 0 0 0 0 0 0 0 0 0 0 0 0 0 0 0 0 0 0 0 0 0 0 0 0 0 0 0 0 0 0 0 0 0
0 0 0 0 0 0 0 0 0 0 0 0 0 0 0 0 0 0 0 0 0 0 0 0 0 0 0 0 0 0 0 0 0 0 0 0 0 0 0 0 0 0 0
0 0 0 0 0 0 0 0 0 0 0 0 0 0 0 0 0 0 0 0 0 0 0 0 0 0 0 0 0 0 0 0 0 0 0 0 0 0 0 0 0 0 0
0 0 0 0 0 0 0 0 0 0 0 0 0 0 0 0 0 0 0 0 0 0 0 0 0 0 0 0 0 0 0 0 0 0 0 0 0 0 0 0 0 0 0
0 0 0 0 0 0 0 0 0 0 0 0 0 0 0 0 0 0 0 0 0 0 0 0 0 0 0 0 0 0 0 0 0 0 0 0 0 0 0 0 0 0 0
0 0 0 0 0 0 0 0 0 0 0 0 0 0 0 0 0 0 0 0 0 0 0 0 0 0 0 0 0 0 0 0 0 0 0 0 0 0 0 0 0 0 0
0 0 0 0 0 0 0 0 0 0 0 0 0 0 0 0 0 0 0 0 0 0 0 0 0 0 0 0 0 0 0 0 0 0 0 0 0 0 0 0 0 0 0
0 0 0 0 0 0 0 0 0 0 0 0 0 0 0 0 0 0 0 0 0 0 0 0 0 0 0 0 0 0 0 0 0 0 0 0 0 0 0 0 0 0 0
0 0 0 0 0 0 0 0 0 0 0 0 0 0 0 0 0 0 0 0 0 0 0 0 0 0 0 0 0 0 0 0 0 0 0 0 0 0 0 0 0 0 0
0 0 0 0 0 0 0 0 0 0 0 0 0 0 0 0 0 0 0 0 0 0 0 0 0 0 0 0 0 0 0 0 0 0 0 0 0 0 0 0 0 0 0
0 0 0 0 0 0 0 0 0 0 0 0 0 0 0 0 0 0 0 0 0 0 0 0 0 0 0 0 0 0 0 0 0 0 0 0 0 0 0 0 0 0 0
0 0 0 0 0 0 0 0 0 0 0 0 0 0 0 0 0 0 0 0 0 0 0 0 0 0 0 0 0 0 0 0 0 0 0 0 0 0 0 0 0 0 0
0 0 0 0 0 0 0 0 0 0 0 0 0 0 0 0 0 0 0 0 0 0 0 0 0 0 0 0 0 0 0 0 0 0 0 0 0 0 0 0 0 0 0
0 0 0 0 0 0 0 0 0 0 0 0 0 0 0 0 0 0 0 0 0 0 0 0 0 0 0 0 0 0 0 0 0 0 0 0 0 0 0 0 0 0 0
0 0 0 0 0 0 0 0 0 0 0 0 0 0 0 0 0 0 0 0 0 0 0 0 0 0 0 0 0 0 0 0 0 0 0 0 0 0 0 0 0 0 0
0 0 0 0 0 0 0 0 0 0 0 0 0 0 0 0 0 0 0 0 0 0 0 0 0 0 0 0 0 0 0 0 0 0 0 0 0 0 0 0 0 0 0
0 0 0 0 0 0 0 0 0 0 0 0 0 0 0 0 0 0 0 0 0 0 0 0 0 0 0 0 0 0 0 0 0 0 0 0 0 0 0 0 0 0 0
0 0 0 0 0 0 0 0 0 0 0 0 0 0 0 0 0 0 0 0 0 0 0 0 0 0 0 0 0 0 0 0 0 0 0 0 0 0 0 0 0 0 0
0 0 0 0 0 0 0 0 0 0 0 0 0 0 0 0 0 0 0 0 0 0 0 0 0 0 0 0 0 0 0 0 0 0 0 0 0 0 0 0 0 0 0
Wind_Speed
4 5 7 6 7 7 8 8 8 9 9 9 9 9 9 9 9 9 9 9 9 9 8 8 8 8 8 8 8 8 8 7 7 7 7 7 6 6 5 4 2 4 6
4 5 6 6 7 8 8 9 9 9 9 9 9 9 9 9 9 9 9 9 9 9 9 8 8 8 8 8 8 8 8 8 7 6 5 6 7 6 6 5 5 5 6
5 5 6 7 7 7 8 9 9 9 9 9 9 9 9 9 9 9 10 9 9 9 9 9 9 9 9 8 8 8 8 8 7 5 2 5 7 7 6 5 5 5 5
5 5 7 7 7 8 8 9 9 9 9 9 9 9 9 9 9 9 10 10 10 10 9 9 9 8 9 9 9 8 7 7 6 3 3 5 6 8 7 6 5 5 5
5 6 8 7 7 8 8 9 9 9 9 9 9 9 9 9 9 9 10 10 10 10 9 9 9 9 9 9 9 9 8 7 6 4 6 5 5 7 6 5 5 5 5
6 6 8 7 7 8 9 9 9 9 9 9 9 9 9 9 10 10 10 10 10 10 9 9 9 9 9 10 9 9 9 7 4 5 5 5 5 5 4 4 5 5 5
6 6 8 8 8 8 8 9 9 9 9 9 10 10 10 10 10 10 10 9 9 9 10 10 10 10 10 10 10 10 9 7 6 5 5 5 5 5 4 4 5 6 6
6 6 7 8 8 8 8 9 9 9 9 9 9 9 9 9 9 9 10 9 9 10 10 11 11 11 11 11 11 10 9 7 6 6 5 6 7 6 5 5 6 6 7
5 5 5 5 7 7 8 8 9 10 9 9 9 9 8 8 9 9 9 10 10 10 11 11 11 11 11 11 11 10 9 8 6 5 6 6 8 9 9 9 9 9 9
5 5 4 5 5 5 7 8 8 9 9 8 8 7 6 6 7 7 8 9 9 10 10 10 11 11 11 11 10 9 7 4 7 7 6 8 10 10 10 10 10 10 10
5 4 3 4 5 5 6 6 5 6 6 4 5 4 2 4 5 5 9 9 9 9 9 9 10 9 8 9 9 7 4 5 7 6 6 10 10 10 11 10 10 11 11
5 4 3 4 4 4 4 4 3 4 4 5 5 4 4 4 5 5 7 7 8 7 8 8 7 5 3 5 6 3 4 6 5 5 7 11 11 11 10 10 11 11 11
4 4 4 3 3 3 3 3 2 3 3 4 5 5 4 4 3 3 3 4 4 4 5 5 3 4 5 5 5 5 6 5 4 5 8 11 11 11 11 11 11 11 11
3 3 3 3 3 3 3 3 2 3 3 3 4 5 4 3 3 3 3 4 3 3 4 3 3 5 6 6 6 6 7 5 5 4 7 11 11 11 12 12 12 11 10
3 2 3 2 3 3 3 2 2 3 3 4 4 4 5 3 3 3 3 3 4 3 3 3 3 5 5 6 6 6 7 7 6 6 5 11 12 11 12 12 12 11 11
2 2 2 2 2 2 2 2 3 3 2 3 4 4 5 4 3 3 3 3 3 3 3 3 4 4 4 4 5 6 6 6 6 6 6 7 11 12 12 12 12 12 11
2 2 2 1 2 2 2 2 2 2 2 3 3 4 5 4 4 3 3 3 3 3 3 3 4 3 3 4 5 5 5 6 5 6 6 5 6 9 11 12 11 11 11
1 2 2 1 1 2 2 2 2 2 2 3 3 3 4 4 4 3 3 4 4 3 3 3 2 3 3 3 3 4 4 4 5 6 5 5 5 5 8 10 10 10 10
1 1 2 2 1 1 1 1 2 2 2 2 2 2 3 4 4 3 3 3 4 3 3 3 3 2 3 3 3 3 3 3 4 4 5 6 6 5 5 7 8 9 9
1 1 2 2 1 1 1 1 1 1 2 2 2 2 3 3 3 3 2 3 4 3 3 3 3 3 3 2 2 3 3 3 3 4 4 5 5 6 5 5 4 5 7
1 1 1 1 1 1 1 0 0 1 1 2 2 2 3 3 3 3 2 2 2 2 3 3 3 3 3 2 1 2 2 3 3 3 3 3 4 5 4 4 3 3 3
1 1 1 1 1 1 0 0 0 0 1 1 1 2 2 3 2 2 2 2 2 2 3 3 2 2 2 2 2 1 0 2 2 2 2 2 3 3 3 4 4 4 3
1 1 0 0 1 1 1 1 1 1 1 1 1 1 2 2 2 2 2 2 2 2 2 2 2 2 1 1 2 2 2 2 1 1 1 1 2 2 2 2 3 3 3
1 1 1 0 0 1 1 1 1 1 0 1 1 1 1 1 1 2 1 1 1 1 1 1 1 1 1 1 1 2 3 3 2 1 1 1 1 1 1 1 2 2 3
2 1 1 1 1 1 0 1 1 0 0 0 0 0 1 1 1 1 1 1 0 0 1 1 1 1 0 1 1 1 1 1 3 2 1 1 1 1 1 1 1 1 2
2 2 2 1 1 1 0 1 1 1 0 0 0 0 0 1 0 1 1 1 1 1 1 1 1 1 1 1 1 1 1 1 2 2 2 2 2 1 1 1 1 1 1
Wind_Direction
26 31 34 17 32 42 52 59 60 62 62 58 60 62 64 66 67 67 69 68 66 64 64 64 61 57 57 56 57 61 64 69 75 79 85 83 82 84 80 72 87 101 87
34 49 49 30 40 48 56 61 62 63 63 61 60 61 64 64 64 65 68 68 67 62 64 66 62 59 57 54 54 56 60 62 66 71 82 90 79 72 73 68 47 71 89
51 57 66 46 44 50 57 61 61 62 61 60 59 60 63 65 64 62 64 64 64 62 62 62 60 59 59 57 52 52 57 59 59 63 62 75 77 65 61 64 69 77 87
63 61 57 50 50 51 57 60 60 60 58 56 57 58 61 63 64 63 62 61 62 61 61 61 62 60 60 61 59 56 60 61 57 34 57 60 64 64 54 59 67 79 87
74 66 67 50 53 54 59 60 57 57 55 54 56 59 59 62 63 61 62 61 62 60 59 61 63 63 64 64 63 61 60 58 53 42 55 57 58 58 50 55 67 75 86
80 73 72 51 58 56 58 59 56 56 55 55 58 60 59 61 63 62 60 61 64 62 60 61 63 64 65 63 61 58 54 45 44 53 54 51 58 63 56 63 73 79 82
80 76 78 60 58 58 57 56 54 56 56 56 58 61 61 61 62 61 59 60 63 63 62 63 61 63 64 62 59 56 50 34 49 57 52 51 54 52 53 65 79 82 82
77 77 84 83 65 61 57 55 54 56 58 58 60 62 63 63 62 60 59 60 62 65 65 65 61 63 63 62 59 55 44 17 53 54 50 51 49 45 53 69 81 84 81
78 74 72 83 91 86 66 56 55 53 53 56 60 62 63 64 62 59 60 59 62 64 66 67 62 63 63 61 57 54 46 21 41 47 49 49 45 49 58 69 77 79 81
78 74 72 71 70 79 85 69 57 54 50 52 57 57 62 79 77 67 66 60 61 63 66 68 65 64 64 61 57 51 38 23 48 50 46 51 50 52 59 69 75 77 80
75 71 72 74 70 67 66 72 74 71 54 53 73 73 72 64 65 74 60 58 60 63 67 69 69 68 70 73 60 44 27 42 50 47 47 47 47 51 58 68 75 78 78
84 75 65 66 69 69 65 66 53 56 51 39 42 57 52 55 54 54 82 66 64 69 78 72 72 82 62 64 66 46 44 45 45 50 51 44 44 48 57 71 78 79 79
81 73 66 63 63 65 68 59 48 44 42 36 33 47 46 56 61 52 61 76 69 70 68 76 72 58 59 55 47 49 46 40 40 48 53 45 47 50 58 70 78 78 77
76 69 65 60 63 63 62 59 50 47 41 39 27 41 44 46 48 51 49 47 48 52 53 52 48 54 57 59 57 56 53 44 43 47 55 47 49 55 62 71 76 76 76
94 77 71 62 53 60 62 47 54 50 38 51 40 36 46 45 52 55 59 51 48 48 59 56 51 53 53 54 54 53 52 51 50 52 60 54 50 55 63 68 69 71 72
99 87 85 68 59 57 65 70 56 47 50 45 41 37 47 50 52 48 55 54 50 44 44 51 57 53 52 52 53 53 48 50 51 56 59 66 59 58 61 64 68 69 70
85 90 90 75 62 60 54 58 55 43 49 46 39 34 48 50 52 49 40 47 45 45 53 50 59 52 55 56 56 52 48 45 48 54 55 54 62 65 63 61 64 68 69
98 95 102 111 80 66 57 61 61 56 45 45 39 31 38 48 48 51 44 43 41 40 44 49 48 52 55 50 52 51 54 51 51 53 57 57 52 56 72 62 57 61 64
119 114 119 121 109 98 79 77 65 65 52 44 41 33 28 42 45 53 45 43 48 43 40 38 47 44 50 45 49 50 50 53 53 53 56 55 56 53 62 73 61 56 58
172 139 119 118 138 128 123 76 87 69 57 50 45 32 32 37 41 55 55 50 54 56 48 42 48 50 46 37 51 56 55 57 59 52 51 55 53 54 55 58 63 68 61
184 169 130 162 151 145 129 103 64 73 54 56 50 42 47 50 49 56 47 54 48 55 52 51 53 60 54 28 41 70 89 71 56 62 51 46 56 54 55 56 48 48 66
159 147 156 169 163 142 130 74 58 75 63 60 59 63 54 55 48 40 32 52 59 56 58 59 59 34 54 31 351 335 56 134 89 77 59 45 44 53 46 44 42 43 36
170 170 229 232 175 162 156 128 126 132 165 126 98 72 42 41 44 28 17 27 43 50 56 55 51 36 26 41 11 345 336 6 7 108 70 65 42 33 36 32 31 39 35
179 193 217 187 66 117 157 183 213 254 330 15 36 70 87 56 40 21 11 20 42 43 53 47 51 39 17 19 31 352 350 357 312 319 151 67 15 358 6 7 9 24 28
169 165 173 129 88 78 157 174 243 262 19 47 65 62 72 78 39 22 356 355 349 2 5 12 360 344 5 354 358 349 347 326 310 303 301 315 305 305 329 327 338 356 10
163 163 168 159 123 105 136 174 211 216 229 282 328 351 338 103 63 35 344 336 319 324 312 304 285 274 293 317 322 340 335 318 323 304 292 295 303 310 286 298 289 322 321